• MPC Preparation (Info)

  • MPEC 2010-L54 : 2010 LK34

    The following Minor Planet Electronic Circular may be linked-to from your own Web pages, but must not otherwise be redistributed electronically.

    A form allowing access to any MPEC is at the bottom of this page.


    Read MPEC 2010-L53 Read MPEC 2010-L55


    M.P.E.C. 2010-L54                                Issued 2010 June 10, 16:33 UT
    
         The Minor Planet Electronic Circulars contain information on unusual
             minor planets and routine data on comets.  They are published
       on behalf of Commission 20 of the International Astronomical Union by the
              Minor Planet Center, Smithsonian Astrophysical Observatory,
                              Cambridge, MA 02138, U.S.A.
    
                 Prepared using the Tamkin Foundation Computer Network
    
                                  MPC@CFA.HARVARD.EDU
           URL https://www.minorplanetcenter.org/iau/mpc.html  ISSN 1523-6714
    
                                       2010 LK34
    
    Observations:
         K10L34K* C2010 06 09.31659 16 21 18.43 +12 27 00.2          18.8 V EL054703
         K10L34K  C2010 06 09.32584 16 21 12.09 +12 28 22.5          19.9 V EL054703
         K10L34K  C2010 06 09.33513 16 21 05.90 +12 29 45.2          19.5 V EL054703
         K10L34K  C2010 06 09.39617 16 20 24.66 +12 38 52.7          19.0 V EL054703
         K10L34K  C2010 06 09.39675 16 20 24.25 +12 38 58.6                 EL054703
         K10L34K  C2010 06 09.39733 16 20 23.80 +12 39 03.3                 EL054703
         K10L34K  C2010 06 09.39791 16 20 23.38 +12 39 08.4          19.1 V EL054703
         K10L34K  C2010 06 09.45240 16 19 46.58 +12 47 18.7          18.8 R EL054H01
         K10L34K  C2010 06 09.45557 16 19 44.44 +12 47 47.3          18.9 R EL054H01
         K10L34K KC2010 06 09.45945 16 19 41.80 +12 48 22.7          18.6 R EL054H01
         K10L34K  C2010 06 09.47101 16 19 37.46 +12 51 22.1                 EL054474
         K10L34K  C2010 06 09.47304 16 19 36.05 +12 51 41.4          19.4 R EL054474
         K10L34K  C2010 06 09.47558 16 19 34.38 +12 52 04.2                 EL054474
         K10L34K  C2010 06 09.47721 16 19 33.28 +12 52 18.7                 EL054474
         K10L34K  C2010 06 09.47801 16 19 32.65 +12 52 26.4          18.9 R EL054474
         K10L34K  C2010 06 09.47882 16 19 32.10 +12 52 33.8          19.1 R EL054474
         K10L34K  C2010 06 09.47963 16 19 31.56 +12 52 41.6          18.9 R EL054474
         K10L34K  C2010 06 09.48044 16 19 30.97 +12 52 48.7          18.7 R EL054474
         K10L34K  C2010 06 09.48125 16 19 30.48 +12 52 54.9          18.8 R EL054474
         K10L34K  C2010 06 09.61824 16 17 56.60 +13 12 51.3          19.3 V EL054900
         K10L34K  C2010 06 09.62739 16 17 50.11 +13 14 15.5          19.4 V EL054900
         K10L34K KC2010 06 09.90972 16 14 32.89 +13 58 39.1          19.3 R EL054473
         K10L34K KC2010 06 09.91051 16 14 32.32 +13 58 46.6          19.3 V EL054595
         K10L34K KC2010 06 09.91810 16 14 26.68 +14 00 00.7          19.4 V EL054595
         K10L34K KC2010 06 09.92083 16 14 24.71 +14 00 26.2          19.3 R EL054473
         K10L34K  C2010 06 10.13443316 11 49.40 +14 35 18.1          19.7 V EL054H21
         K10L34K  C2010 06 10.13859816 11 46.19 +14 35 59.2          19.8 V EL054H21
         K10L34K  C2010 06 10.14307216 11 42.75 +14 36 43.9          19.9 V EL054H21
         K10L34K KC2010 06 10.19221 16 11 05.45 +14 44 54.0          19.4 R EL054H36
         K10L34K KC2010 06 10.19890 16 11 00.23 +14 46 00.8          19.7 R EL054H36
         K10L34K KC2010 06 10.20370 16 10 56.53 +14 46 49.0          19.7 R EL054H36
         K10L34K KC2010 06 10.20673 16 10 54.18 +14 47 20.1          19.7 R EL054H36
         K10L34K  C2010 06 10.21012716 10 51.12 +14 47 52.6          18.8 R EL054H21
         K10L34K  C2010 06 10.21299416 10 48.94 +14 48 21.3          19.0 R EL054H21
         K10L34K  C2010 06 10.21579116 10 46.77 +14 48 48.8          19.0 R EL054H21
         K10L34K  C2010 06 10.23769 16 10 31.04 +14 52 34.6          18.9 V EL054703
         K10L34K  C2010 06 10.24389 16 10 26.11 +14 53 37.1          19.5 V EL054703
         K10L34K  C2010 06 10.25008 16 10 21.25 +14 54 38.4          18.9 V EL054703
         K10L34K  C2010 06 10.25916 16 10 14.20 +14 56 10.3          19.3 V EL054703
         K10L34K  C2010 06 10.34701 16 09 04.97 +15 10 56.6          19.2 R EL054854
         K10L34K  C2010 06 10.35528 16 08 58.43 +15 12 19.9          19.3 R EL054854
    
    Observer details:
    473 Remanzacco.  Observers L. Donato, V. Gonano, E. Guido, G. Sostero.  0.45-m
        f/4.4 Newtonian reflector + CCD.
    474 Mount John Observatory, Lake Tekapo.  Observers A. C. Gilmore,
        P. M. Kilmartin.  Measurer P. M. Kilmartin.  1.0-m f/7.7 reflector + CCD.
    595 Farra d'Isonzo.  Observer E. Pettarin.  0.40-m f/4.5 reflector + CCD.
    703 Catalina Sky Survey.  Observers R. A. Kowalski, A. Boattini.  Measurers
        J. D. Ahern, E. C. Beshore, A. Boattini, G. J. Garradd, A. R. Gibbs,
        A. D. Grauer, R. E. Hill, R. A. Kowalski, S. M. Larson, R. H. McNaught.
        0.68-m Schmidt + CCD.
    854 Sabino Canyon Observatory, Tucson.  Observer J. E. McGaha.  0.36-m f/10.0
        Schmidt-Cassegrain + CCD.
    900 Moriyama.  Observer Y. Ikari.  0.26-m f/7.0 reflector + CCD.
    H01 Magdalena Ridge Observatory, Socorro.  Observer W. H. Ryan.  2.4-m f/8.9
        reflector + CCD.
    H21 Astronomical Research Observatory, Westfield.  Observer R. Holmes.
        Measurer S. Foglia.
    H36 Sandlot Observatory, Scranton.  Observer G. Hug.  0.56-m reflector + CCD.
    
    Orbital elements:
    2010 LK34                                           PHA, Earth MOID = 0.0077 AU
    Epoch 2010 July 23.0 TT = JDT 2455400.5                 MPC
    M 356.03750              (2000.0)            P               Q
    n   0.39630622     Peri.  249.09678     +0.94091921     -0.33101624
    a   1.8356172      Node   130.16128     +0.33491034     +0.87847977
    e   0.8072312      Incl.    5.36150     +0.05006106     +0.34453090
    P   2.49           H   21.9           G   0.15           U   8
    Residuals in seconds of arc
    100609 703  0.5+  0.8+    100609 474  0.1+  0.0     100610 H36  0.5+  0.0
    100609 703  1.1-  0.4+    100609 474  0.3+  0.0     100610 H36  0.2-  0.0
    100609 703  0.0   0.1-    100609 474  0.5+  0.4+    100610 H36  0.1+  0.3+
    100609 703  0.2+  0.6-    100609 474  0.0   0.1+    100610 H36  0.0   1.1+
    100609 703  0.1-  0.1+    100609 474  1.0+  1.1-    100610 H21  0.1+  0.3+
    100609 703  0.9-  0.4-    100609 900  0.9-  1.0+    100610 H21  0.8+  0.4+
    100609 703  1.3-  0.5-    100609 900  1.3-  0.2+    100610 H21  0.8+  0.1-
    100609 H01  0.3+  0.0     100609 473  0.0   0.1-    100610 703  0.5+  0.2-
    100609 H01  0.4+  0.1-    100609 595  0.3+  0.4-    100610 703  0.7-  0.1+
    100609 H01  0.1+  0.2+    100609 595  0.4-  0.5+    100610 703  1.0-  0.8-
    100609 474  0.1+  0.3-    100609 473  0.1+  0.2-    100610 703  0.2-  0.1-
    100609 474  0.1-  0.5+    100610 H21  0.1-  0.5-    100610 854  0.2+  0.4+
    100609 474  1.0+  0.0     100610 H21  0.5-  0.8-    100610 854  0.4+  0.1+
    100609 474  1.3+  0.4-    100610 H21  0.7-  0.5-
    
    Ephemeris:
    2010 LK34                a,e,i = 1.84, 0.81, 5                   q = 0.3538
    Date    TT    R. A. (2000) Decl.     Delta      r     Elong.  Phase     V
    2010 06 03    17 06.34   +01 28.1    0.237    1.234   155.6    19.9    20.2
    2010 06 04    17 01.49   +02 43.2    0.223    1.220   154.7    20.9    20.1
    2010 06 05    16 56.00   +04 06.9    0.210    1.206   153.4    22.2    20.0
    2010 06 06    16 49.74   +05 40.8    0.197    1.192   151.7    23.8    19.9
    2010 06 07    16 42.56   +07 26.5    0.184    1.178   149.6    25.9    19.8
    2010 06 08    16 34.29   +09 25.8    0.172    1.163   147.0    28.4    19.7
    2010 06 09    16 24.69   +11 40.8    0.161    1.149   143.9    31.4    19.6
    2010 06 10    16 13.46   +14 13.6    0.150    1.134   140.2    35.0    19.5
    2010 06 11    16 00.24   +17 06.0    0.139    1.119   135.8    39.2    19.4
    2010 06 12    15 44.55   +20 18.9    0.130    1.105   130.7    44.2    19.4
    2010 06 13    15 25.84   +23 51.6    0.122    1.090   124.9    49.8    19.4
    2010 06 14    15 03.48   +27 40.3    0.115    1.075   118.3    56.3    19.4
    2010 06 15    14 36.84   +31 36.6    0.110    1.060   110.9    63.6    19.5
    2010 06 16    14 05.48   +35 26.5    0.106    1.045   102.9    71.4    19.6
    2010 06 17    13 29.51   +38 51.5    0.104    1.029    94.5    79.7    19.8
    2010 06 18    12 49.88   +41 32.8    0.105    1.014    85.9    88.2    20.1
    2010 06 19    12 08.55   +43 17.2    0.107    0.998    77.5    96.4    20.5
    2010 06 20    11 28.05   +44 02.3    0.111    0.983    69.6   104.3    20.9
    2010 06 21    10 50.60   +43 56.0    0.117    0.967    62.2   111.6    21.4
    2010 06 22    10 17.52   +43 12.1    0.125    0.951    55.6   118.2    22.0
    2010 06 23    09 49.16   +42 04.6    0.133    0.935    49.6   124.2    22.6
    
    Timothy B. Spahr             (C) Copyright 2010 MPC           M.P.E.C. 2010-L54
    

    Read MPEC 2010-L53 Read MPEC 2010-L55


    MPEC number:

    Enter an MPEC number in one of the following forms:

    • 1997-B01 (the full form)
    • J97B01 (the packed version of the full form)
    • B01 (the abbreviated form)